AO-07 1 07530U 74089B 26160.31226999 -.00000035 00000-0 69227-4 0 9998 2 07530 101.9901 173.4766 0012488 144.7701 229.1729 12.53697932359533 UO-11 1 14781U 84021B 26160.16689562 .00001121 00000-0 11978-3 0 9998 2 14781 97.8054 125.8314 0006887 199.5378 160.5577 14.90763358255932 LO-19 1 20442U 90005G 26160.22832358 .00000103 00000-0 53684-4 0 9998 2 20442 98.8852 181.8144 0010713 225.8181 134.2123 14.34120727901254 AO-27 1 22825U 93061C 26160.09847172 .00000074 00000-0 45187-4 0 9991 2 22825 98.6881 227.5146 0009411 120.7072 239.5039 14.30940069705843 FO-29 1 24278U 96046B 26160.10433694 -.00000009 00000-0 23943-4 0 9998 2 24278 98.5248 10.0837 0350777 117.3510 246.3789 13.53273744472075 GO-32 1 25397U 98043D 26160.26741352 .00000059 00000-0 45500-4 0 9997 2 25397 99.0065 152.8264 0000599 183.8868 176.2306 14.24426844450205 ISS 1 25544U 98067A 26160.19103139 .00006847 00000-0 12924-3 0 9998 2 25544 51.6332 339.6717 0006890 149.5560 210.5830 15.49678250570515 NO-44 1 26931U 01043C 26160.26677914 .00000089 00000-0 64108-4 0 9996 2 26931 67.0511 264.7572 0006108 264.2587 95.7818 14.31953293289316 SO-50 1 27607U 02058C 26160.26567254 .00000928 00000-0 12671-3 0 9998 2 27607 64.5504 153.4942 0075435 263.9417 95.3090 14.83029337263289 CO-55 1 27844U 03031E 26160.23963294 .00000266 00000-0 13415-3 0 9996 2 27844 98.6735 168.8984 0009004 201.6668 158.4131 14.24330800190548 RS-22 1 27939U 03042A 26160.28866682 .00000444 00000-0 76781-4 0 9995 2 27939 98.3475 344.4245 0010176 298.1896 238.5217 14.73452061214381 CO-65 1 32785U 08021C 26160.22741874 .00005125 00000-0 32464-3 0 9991 2 32785 97.8272 141.4808 0010342 62.0877 298.1398 15.09376314983995 CO-66 1 32791U 08021J 26160.23552938 .00016060 00000-0 51422-3 0 9995 2 32791 97.7519 157.7552 0002294 29.0945 331.0424 15.32477826986072 RS-30 1 32953U 08025A 26160.29209198 .00000015 00000-0 38929-4 0 9993 2 32953 82.5048 0.3522 0019192 331.7140 28.2896 12.43178880818716 SRMSAT 1 37841U 11058D 26160.24317178 .00000362 00000-0 52709-4 0 9994 2 37841 19.9710 107.5505 0011940 116.6749 358.0957 14.11573893756696 ZACUBE-1 1 39417U 13066B 26160.14189495 .00002997 00000-0 23503-3 0 9999 2 39417 97.8092 122.4351 0040054 275.9917 83.6743 15.01137906679525 Delfi-N3xt 1 39428U 13066N 26160.28024697 .00004015 00000-0 35371-3 0 9997 2 39428 97.8344 80.5996 0072925 232.3994 127.0591 14.95008566673440 GOMX-1 1 39430U 13066Q 26160.28704166 .00001600 00000-0 24472-3 0 9993 2 39430 97.6494 1.2481 0130138 102.6304 258.9490 14.69429819668750 LO-74 1 39440U 13066AA 26160.09167476 .00003409 00000-0 31702-3 0 9993 2 39440 97.8903 109.0360 0059191 55.3304 305.3474 14.93697738675788 AO-73 1 39444U 13066AE 26160.16786605 .00005048 00000-0 31574-3 0 9994 2 39444 97.8270 131.4468 0034829 228.8451 130.9771 15.09393647678457 DTUSAT-2 1 40030U 14033W 26160.24594618 .00005707 00000-0 31024-3 0 9994 2 40030 98.0866 157.4695 0006102 258.5460 101.5086 15.14916834651489 LILACSAT-2 1 40908U 15049K 26160.27382722 .00016042 00000-0 27593-3 0 9990 2 40908 97.4660 196.8157 0005273 283.5589 76.5075 15.51182127594527 Horyu-4 1 41340U 16012D 26160.22982444 .00305741 00000-0 94017-3 0 9996 2 41340 30.9844 137.2122 0003257 219.6286 140.4136 15.89952627569543 Lapan A3 1 41603U 16040E 26160.29342409 .00003055 00000-0 97841-4 0 9999 2 41603 97.1487 156.6988 0011715 51.3857 308.8433 15.33054121553602 CAS-2T 1 41847U 16066G 26160.20623799 .00001572 00000-0 22785-3 0 9998 2 41847 98.3822 236.0336 0342497 153.6291 208.2796 14.44667476503648 TechnoSat 1 42829U 17042E 26159.87151329 .00002942 00000-0 21128-3 0 9992 2 42829 97.4266 317.8474 0018845 120.4695 239.8397 15.04904069485453 AO-91 1 43017U 17073E 26159.34389375 .00007664 00000-0 33533-3 0 9991 2 43017 97.4721 26.7398 0150896 359.9259 0.1924 15.12571253464050 S-Net D 1 43186U 18014G 26160.28071682 .00004827 00000-0 25029-3 0 9997 2 43186 97.5367 65.1205 0009601 54.2452 305.9672 15.16597743457565 S-Net B 1 43187U 18014H 26160.29201531 .00004709 00000-0 24445-3 0 9997 2 43187 97.5374 65.1181 0010130 49.5298 310.6817 15.16567439457564 S-Net A 1 43188U 18014J 26160.27963641 .00004722 00000-0 24485-3 0 9992 2 43188 97.5382 65.3131 0010053 50.2402 309.9715 15.16605463457569 S-Net C 1 43189U 18014K 26160.29585110 .00004535 00000-0 23556-3 0 9996 2 43189 97.5401 65.4029 0011246 42.9291 317.2818 15.16559026456117 Ten-Koh 1 43677U 18084G 26160.26748399 .00002153 00000-0 16518-3 0 9996 2 43677 98.0785 352.2972 0010679 138.8831 221.3200 15.02910423414973 PO-101 1 43678U 18084H 26160.30062250 .00002189 00000-0 17912-3 0 9995 2 43678 98.1173 356.1669 0012060 196.0288 164.0555 15.00413961415037 QO-100 1 43700U 18090A 26160.20434111 .00000161 00000-0 00000-0 0 9991 2 43700 0.0163 288.9745 0001916 188.7115 239.2727 1.00273583 27591 MinXSS-2 1 43758U 18099A 26160.19854509 .00032307 00000-0 65371-3 0 9990 2 43758 97.4536 236.2523 0006145 289.4186 70.6398 15.46365185412891 AO-95 1 43770U 18099N 26160.08109071 .00008954 00000-0 34498-3 0 9996 2 43770 97.4389 220.3580 0008826 27.1898 332.9801 15.26538897411985 SNUSat 2 1 43782U 18099AA 26160.11399540 .00006416 00000-0 28610-3 0 9995 2 43782 97.4065 213.6222 0009140 331.4678 28.6057 15.21715725411809 SnugLite 1 43784U 18099AC 26160.08397788 .00009845 00000-0 37411-3 0 9993 2 43784 97.3875 214.4446 0001714 349.4298 10.6904 15.27000484412080 ITASat 1 1 43786U 18099AE 26160.11674282 .00005227 00000-0 25280-3 0 9997 2 43786 97.4032 211.7901 0012984 28.2656 331.9281 15.18954369411687 EAGLET 1 1 43790U 18099AJ 26160.11605748 .00002992 00000-0 17348-3 0 9995 2 43790 97.4234 209.9985 0011504 22.3123 337.8607 15.12878232411111 ESEO 1 43792U 18099AL 26160.06477303 .00001616 00000-0 12032-3 0 9992 2 43792 97.3965 197.8007 0012170 7.5926 352.5483 15.04214984410584 JO-97 1 43803U 18099AX 26160.13509799 .00014955 00000-0 46531-3 0 9999 2 43803 97.4132 222.9432 0004209 303.3283 56.7556 15.33397143412399 Suomi 100 1 43804U 18099AY 26160.08758942 .00009244 00000-0 33836-3 0 9999 2 43804 97.4188 220.5119 0008531 313.2979 46.7548 15.28231571412184 ISAT 1 43879U 18111D 26160.29563253 .00084487 00000-0 89376-3 0 9990 2 43879 97.5882 94.9178 0001911 49.1516 310.9907 15.63889972409930 UWE-4 1 43880U 18111E 26159.73543038 .00034399 00000-0 71406-3 0 9990 2 43880 97.5854 87.7396 0007085 15.0599 345.0859 15.45597673409472 Sparrow 1 43881U 18111F 26159.79882542 .00145912 00000-0 10994-2 0 9991 2 43881 97.6116 99.8565 0004819 100.2309 259.9497 15.72054596410054 Prox-1 1 44339U 19036A 26158.75163262 .00013430 00000-0 13165-2 0 9995 2 44339 23.9933 177.2711 0005354 281.8651 78.1248 14.90390005372067 Taurus 1 1 44530U 19059C 26160.28999983 .00005367 00000-0 86281-3 0 9991 2 44530 98.6416 324.6292 0007787 344.3018 15.7944 14.72014573357483 TO-108 1 44881U 19093C 26160.23645303 .00001486 00000-0 17365-3 0 9992 2 44881 97.7528 232.6624 0014949 110.2579 250.0246 14.86509819350235 RS-44 1 44909U 19096E 26160.26521816 .00000034 00000-0 88407-4 0 9995 2 44909 82.5218 344.9703 0217812 162.6407 198.2295 12.79748669301336 SALSAT 1 46495U 20068K 26159.90359287 .00007690 00000-0 27004-3 0 9998 2 46495 97.8856 162.4647 0008807 341.8369 18.2554 15.29680035314091 CSS (TIANHE-1) 1 48274U 21035A 26160.23389516 .00019782 00000-0 23663-3 0 9998 2 48274 41.4695 10.3915 0008415 13.9110 346.1959 15.60473761291928 CUTE 1 49263U 21088D 26160.20488512 .00130491 83754-5 42597-3 0 9998 2 49263 97.4195 258.7399 0008079 246.7432 113.2991 15.90636354261283 TeikyoSat 4 1 49396U 21102B 26160.03336917 .00002103 00000-0 13499-3 0 9999 2 49396 97.3672 189.8336 0011066 327.9148 32.1407 15.09479159251491 Z-Sat 1 49399U 21102E 26160.28902097 .00004537 00000-0 22448-3 0 9994 2 49399 97.3334 195.8520 0014812 275.7893 84.1652 15.18208324252247 KOSEN 1 1 49402U 21102H 26160.08027342 .00006184 00000-0 23761-3 0 9997 2 49402 97.3193 202.3955 0012433 230.9756 129.0377 15.26721904252784 HO-113 1 50466U 21131B 26160.27964240 .00000527 00000-0 17647-3 0 9990 2 50466 98.4971 252.7122 0005257 115.0760 245.0975 14.41350793233974 SNUGLITE 2 1 52899U 22065F 26159.96801492 .00000965 00000-0 19185-3 0 9997 2 52899 98.2193 304.8138 0008464 56.2407 303.9600 14.64332889209796 UmKA 1 (RS40S) 1 57172U 23091G 26160.19814931 .00005129 00000-0 23581-3 0 9997 2 57172 97.5054 218.9265 0013864 142.6984 217.5217 15.20724572162798 CubeBel-2 (EU11S) 1 57175U 23091K 26160.26538008 .00011292 00000-0 40330-3 0 9995 2 57175 97.5054 223.4125 0011086 138.8119 221.3960 15.28958968163096 RS-38S 1 57189U 23091Z 26160.26442527 .00015263 00000-0 44012-3 0 9993 2 57189 97.5094 229.5923 0008675 101.3179 258.9040 15.35772371163476 SONATE-2 1 59112U 24043Q 26159.98365493 .00032510 00000-0 43231-3 0 9998 2 59112 97.5525 309.8812 0006639 223.4398 136.6335 15.58104995126619 GRBBeta 1 60237U 24128C 26159.72475898 .00004223 00000-0 29272-3 0 9994 2 60237 61.9897 245.9555 0041799 132.8784 227.5832 15.06584103104993 Curium One 1 60242U 24128H 26160.30270904 .00006233 00000-0 36260-3 0 9995 2 60242 61.9782 233.6980 0041029 128.8406 231.6363 15.12410562105260 ROBUSTA-3A 1 60243U 24128J 26159.80006561 .00007653 00000-0 45182-3 0 9995 2 60243 61.9858 237.9014 0042331 126.3779 234.1234 15.11578086105151 CatSat 1 60246U 24125J 26160.11223581 .00052510 00000-0 69917-3 0 9998 2 60246 97.2095 12.5136 0021914 207.9926 152.0153 15.57702981106135 HYPERVIEW-1G (RS66S) 1 61772U 24199AP 26159.86541317 .00099538 00000-0 70384-3 0 9995 2 61772 97.2892 39.1772 0002039 275.6858 84.4174 15.73707202133364 AO-123 1 61781U 24199AY 26160.28033982 .00006593 00000-0 19257-3 0 9998 2 61781 97.3015 29.0227 0013128 344.8076 15.2771 15.35561332132710 JINJUSat 1B 1 63210U 25052A 26159.46663371 .00014473 00000-0 45270-3 0 9995 2 63210 97.4013 56.2109 0005346 109.3952 250.7869 15.33228548 68763 NUSHSAT 1 1 63211U 25052B 26160.24092946 .00017622 00000-0 50980-3 0 9991 2 63211 97.3989 57.5248 0005167 109.3707 250.8096 15.35659341 68924 TEVEL2-4 1 63213U 25052D 26160.22645372 .00015249 00000-0 46063-3 0 9998 2 63213 97.3920 56.6072 0004533 118.1201 242.0501 15.34330791 68893 TEVEL2-5 1 63214U 25052E 26160.18084484 .00016193 00000-0 49157-3 0 9991 2 63214 97.3911 56.5103 0004422 119.9533 240.2150 15.34159706 68886 TEVEL2-6 1 63215U 25052F 26160.25821471 .00016514 00000-0 50179-3 0 9998 2 63215 97.3915 56.5722 0004459 119.7747 240.3940 15.34124854 68898 TEVEL2-1 1 63217U 25052H 26160.21926555 .00015298 00000-0 47283-3 0 9995 2 63217 97.3890 56.1670 0004303 128.3917 231.7713 15.33600892 68873 TEVEL2-3 1 63218U 25052J 26160.27943529 .00016163 00000-0 49846-3 0 9991 2 63218 97.3888 56.2474 0004412 129.8518 230.3113 15.33659205 68880 TEVEL2-2 1 63219U 25052K 26159.69763688 .00018164 00000-0 56087-3 0 9990 2 63219 97.3887 55.6477 0004230 131.0442 229.1167 15.33595395 68799 TEVEL2-9 1 63237U 25052AD 26160.18680803 .00014556 00000-0 47809-3 0 9996 2 63237 97.3949 55.5291 0007021 153.2929 206.8676 15.31651687 68802 TEVEL2-7 1 63238U 25052AE 26160.22619544 .00013402 00000-0 44435-3 0 9997 2 63238 97.3950 55.4878 0007126 153.9029 206.2573 15.31364267 68804 TEVEL2-8 1 63239U 25052AF 26160.23436465 .00013916 00000-0 46151-3 0 9995 2 63239 97.3943 55.4720 0007209 154.6102 205.5495 15.31348638 68804 SPIRONE 1 66657U 25274H 26160.28234323 .00002398 00000-0 23282-3 0 9994 2 66657 97.7477 89.6865 0013303 46.6759 313.5568 14.93512145 29043 K-HERO 1 66660U 25274L 26160.28915064 .00002384 00000-0 22889-3 0 9993 2 66660 97.7485 89.8485 0015313 50.0041 310.2520 14.93932950 29055 SNUGLITE-III DURI 1 66661U 25274M 26160.27714163 .00001868 00000-0 18036-3 0 9995 2 66661 97.7487 89.8571 0015832 50.3758 309.8857 14.93973419 29050 SAKHACUBE-CHOLBON 1 67290U 25313AU 26159.16978697 .00008397 00000-0 34160-3 0 9998 2 67290 97.3924 234.3177 0009771 36.1127 324.0768 15.24728408 24604 RS95S (QMR-KWT-2) 1 67291U 25313AV 26159.16613882 .00011819 00000-0 46084-3 0 9992 2 67291 97.3927 234.4719 0009138 35.3898 324.7945 15.26059007 24613 Ten-Koh2 1 68261U 25241B 26159.94934771 .00005528 00000-0 24001-3 0 9994 2 68261 51.6683 358.8310 0006379 118.0667 242.0957 15.23805123 13650 JACK-002 1 68417U 26067B 26160.19241492 .00005454 00000-0 26165-3 0 9995 2 68417 97.4560 118.8826 0001154 20.3777 339.7504 15.19294460 10733 DISCO 2 1 68431U 26067R 26160.21184173 .00007057 00000-0 34086-3 0 9998 2 68431 97.4596 118.8905 0003559 57.3803 302.7775 15.18952085 10730 HADES-SA (SpinnyONE) 1 68446U 26067AG 26160.11883286 .00015404 00000-0 74213-3 0 9995 2 68446 97.4397 118.5371 0009799 102.6355 257.5975 15.18784835 10709 PARUS-6U1 1 68456U 26067AS 26159.87988414 .00005580 00000-0 28208-3 0 9993 2 68456 97.4546 118.3720 0007638 93.2337 266.9771 15.17430552 10674 SAL-E 1 68458U 26067AU 26160.14028065 .00006109 00000-0 30659-3 0 9995 2 68458 97.4470 118.5696 0008070 99.6262 260.5884 15.17643346 10711 FSI-SAT 2 1 68792U 26088A 26159.38712528 .00003505 00000-0 23912-3 0 9998 2 68792 97.5053 308.8690 0015612 134.2090 226.0423 15.06761099 6965 OrigamiSat 2 1 68795U 26088D 26159.40704979 .00003807 00000-0 24717-3 0 9994 2 68795 97.5070 308.9982 0016493 108.9395 251.3623 15.08528104 6970 ARICA 2 1 68796U 26088E 26159.40488693 .00004082 00000-0 26588-3 0 9991 2 68796 97.5058 308.9921 0017318 107.6086 252.7035 15.08357975 6978 WASEDA-SAT-ZERO-II 1 68797U 26088F 26159.40177111 .00005423 00000-0 35017-3 0 9999 2 68797 97.5053 308.9952 0017125 107.4963 252.8139 15.08543090 6977 MANGARO-II-Piscus 1 68798U 26088G 26159.65844117 .00003916 00000-0 25242-3 0 9998 2 68798 97.5060 309.2719 0020603 109.5339 250.8117 15.08722839 7016 IO-86 1 40931U 25360.30710720 .00000000 00000-0 12800-3 0 00 2 40931 6.0006 332.5373 0012733 338.8432 8.1437 14.79075515 01 LILIUM-4 1 71922C 26067AC 26089.50133053 -.00014632 00000 0 -74472-3 0 04 2 71922 97.4497 49.1617 0004341 5.9603 355.7042 15.16896692 16